Погода в Аболешеве

Россия / Тверская область     56°15′05″N   35°03′07″E
темп.,
°C
ветер,
м/с
пор.,
м/с
влажн.,
%
обл.,
%
осадки,
мм/ч
давл.,
гПа
погр.,
м
13 апреля, вт
вт1300:00+8вюв2694100 0.0 1025130
03:00+7вюв2597100 0.0 1024110
06:00+7юв3695100 0.0 1023117
09:00+12ю3975100 0.0 1023350
12:00+18ю595398 0.0 1022855
15:00+19ю4846100 0.0 10211815
18:00+17ююв375647 0.0 1020263
21:00+12юв3117373 0.0 1020213
14 апреля, ср
ср1400:00+11ююв3127117 0.0 1019226
03:00+9ююв3107690 0.0 1019212
06:00+10ююв3117865 0.0 1018298
09:00+13ю497392 0.0 1018523
12:00+15ююз466769 0.0 10181014
15:00+16ююз4663100 1.5 10171064
18:00+15ю3669100 0.8 1017382
21:00+11ю228287 0.8 101712
15 апреля, чт
чт1500:00+10юз018996 0.4 101710
03:00+9ссв2395100 0.8 101775
06:00+8ссв3798100 0.4 1017196
09:00+10св4790100 0.8 1017374
12:00+13св4667100 0.0 1017786
15:00+14св5866100 0.4 1017925
18:00+11св61179100 0.6 1018713
21:00+8св61388100 0.7 1019516
16 апреля, пт
пт1600:00+6св6139277 0.0 1019489
03:00+5св61391100 0.0 1020578
06:00+5св51291100 0.1 1020557
09:00+6св61286100 0.1 1021542
12:00+10всв6107092 0.0 1021910
15:00+11всв6107482 0.1 10211017
18:00+9всв7128099 0.0 1021922
21:00+9всв61379100 0.0 1022815
17 апреля, сб
сб1700:00+8всв61377100 0.0 1023757
03:00+7всв51280100 0.0 1023537
06:00+5св51280100 0.0 1024443
09:00+7всв61169100 0.0 1025580
12:00+11всв696088 0.0 1025928
15:00+14всв79545 0.0 10251216
18:00+13всв6105368 0.0 10261110
21:00+9всв513585 0.0 1027473